Погода Молыгино

Погода Молыгино : погода сейчас, прогноз погоды и архив. Всё, что Вы хотите узнать о погоде Молыгино!

Поиск расширенной информации на нашем сайте:

Другие новости

Новости СМИ2

Главная страница сайта

Новости сайта

03.07.2017

Напоминаем, что на нашем специализированном сайте Метеоцентр.Азия вы можете получить высокодетализированные автоматические прогнозы погоды по пунктам России, СНГ и мира в авиационном формате (включающие направление и скорость ветра, видимость, явления погоды, количество и форму облачности, нижнюю и верхнюю границу облачности).


Погода Молыгино - сегодня

Время (UTC), дата Ветер
(°,м/с) 
Видим.   Явления Облачность Т
(°С)
Тd
(°С)
f(%) Тe
(°С)
Pmin
(гПа)
dP
(гПа)
Po
(мм)
O2
(г/м3)
Тmin Tmax R s Состояние
почвы
06 16.04.18 230 (ЮЗ) н/о    н/о 
+5.3 -5.1 47 +5  1005.5  -0.3  738  292           
09 16.04.18 250 (З) н/о    н/о 
+6 -4.1 48 +5  1004.7  -0.7  738  291           
12 16.04.18 //0 (С) //  н/о    н/о 
+2.6 +1.2 90 +3  1005.1  0.1  738  294    +6  0.5     
15 16.04.18 тихо ()   н/о    н/о 
+0.3 -0.1 97 1003.9  -1.4  737  297           
18 16.04.18 180 (Ю) н/о    н/о 
+1.9 +0.7 92 +1  1002.6  -1.2  736  294           
00 17.04.18 //0 (С) //  н/о    н/о 
+2.3 +0.7 89 +2  999.7  -0.9  734  293  +0.3    0.0  равномерный
мокрый или
старый снег
100% 
03 17.04.18 240 (ЮЗ) 5-11{11}  н/о    н/о 
+6 -3.1 52 +4  999.2  -0.2  734  290           
06 17.04.18 210 (ЮЗ) 3{11}  н/о    н/о 
+3.6 -0.4 75 +2  1000.9  1.5  735  292           
09 17.04.18 260 (З) 4-10{15}  н/о    н/о 
+2.1 -5.1 59 1002.9  1.9  736  295           
12 17.04.18 //0 (С) //-11{16}  н/о    н/о 
+1.9 -12.6 33 +2  1004.5  1.5  737  296    +6.4  0.7     
15 17.04.18 250 (З) 2{11}  н/о    н/о 
-1.1 -9.1 55 -2  1005.3  0.6  738  299           
18 17.04.18 280 (З) 4-11{11}  н/о    н/о 
-2.4 -14.2 40 -5  1007  1.6  739  302           
21 17.04.18 280 (З) 5-10{11}  н/о    н/о 
-4.2 -14 46 -8  1009.3  2.1  741  304           
00 18.04.18 //0 (С) //{12}  н/о    н/о 
-6.1 -12.4 61 -6  1012.3  2.7  743  307  -6.1      равномерный
мокрый или
старый снег
100% 
03 18.04.18 270 (З) 4{10}  н/о    н/о 
-5.1 -13 54 -8  1014.8  2.6  745  307  -6.1         
06 18.04.18 260 (З) 4{10}  н/о    н/о 
-2.9 -10.7 55 -6  1016.4  1.7  746  305           
09 18.04.18 250 (З) 3{10}  н/о    н/о 
-1.6 -11.1 48 -4  1017.3  747  304           
12 18.04.18 //0 (С) //  н/о    н/о 
-2.9 -11.9 50 -3  1018.6  1.1  748  306    -1.2       
15 18.04.18 290 (З) н/о    н/о 
-5.5 -12.2 59 -5  1019.9  1.1  748  309           
18 18.04.18 160 (Ю) н/о    н/о 
-9.5 -12 82 -9  1020.8  0.5  749  314           
21 18.04.18 170 (Ю) н/о    н/о 
-11.1 -12.4 90 -11  1021.8  0.9  749  316           
00 19.04.18 220 (ЮЗ) н/о    н/о 
-8.6 -11.7 78 -8  1022.3  0.7  750  313  -11.6         
03 19.04.18 250 (З) н/о    н/о 
-3.3 -12.1 51 -5  1022.3  0.4  750  307           
06 19.04.18 240 (ЮЗ) н/о    н/о 
-1.2 -11.4 46 -4  1021.1  -0.9  750  304           
09 19.04.18 240 (ЮЗ) н/о    н/о 
+0.2 -10.8 43 -2  1020.4  -0.6  749  303           
Время (UTC), дата Ветер
(°,м/с) 
Видим.   Явления Облачность Т
(°С)
Тd
(°С)
f(%) Тe
(°С)
Pmin
(гПа)
dP
(гПа)
Po
(мм)
O2
(г/м3)
Тmin Tmax R s Состояние
почвы

Для получения пояснительной информации подведите курсор к названию столбца.

ПОГОДА Молыгино - архив

Всё, что Вы хотите узнать о погоде Молыгино - удобно и подробно!

Выберите нужную дату (начиная с 1 января 2015* года) и нажмите кнопку "Найти".
Будут отображены архивные сводки погоды по пункту Молыгино, начиная с указанной даты.


Отображать данные в формате CSV (для использования в таблицах Excel)


Внимание! Наш архив погоды предназначен исключительно для личного некоммерческого использования в познавательных целях. Если Вам необходимы официальные справки о состоянии погоды (для производственных, юридических, коммерческих и т.п. целей), обращайтесь в органы Росгидромета.

*Примечание: данная дата относится к архиву по метеостанциям СССР (Россия, СНГ, Балтия).
Архив по метеостанциям Зарубежной Европы и Азии (кроме Китая) хранится 10 дней, по другим регионам земного шара (Китай, Африка, Америка, Австралия, Океания) - 1 день.

Молыгино - район местоположения метеостанции


Название, широта, долгота, высота метеостанции:
Молыгино 58.2°ш. 94.8°д. 161 м над ур. моря [Российская Федерация]

Дополнительная информация

В oтличие oт бoльшинства пoгoдных сайтoв мы публикуем пoдрoбную метеoинфoрмацию в детальнoм прoфессиoнальнoм фoрмате.

Характеристики температуры и влажнoсти вoздуха измеряются на высoте 2 м в тени вдали oт зданий и деревьев.
Скoрoсть ветра измеряется на высoте 10 м (на урoвне рoста челoвека скoрoсть ветра ниже в 1.5-2 раза). Если метеoстанция нахoдится в гoрoде или в лесу, тo скoрoсть ветра занижена на 2-4 м/с пo сравнению с oткрытым местoм. Скoрoсть ветра над акватoриями крупных рек и oзёр, а также на вершинах хoлмoв на 2-5 м/с выше, чем в oбычных услoвиях.
Атмoсфернoе давление в разных тoчках местнoсти мoжет значительнo oтличаться oт давления на метеoстанции, в зависимoсти oт услoвий рельефа (при пoдъёме на 10 м давление пoнижается примернo на 1 мм рт.ст.).